Simultaneous Nadir Overpasses (SNOs) Predictions

Prediction of SNOs near equator between AQUA and NPP Satellite Orbit:

Table of predicted SNOs near equator for the next 14.0 days since TLE Epoch: 3/8/2014
Index Date (AQUA) Time (AQUA) AQUA Lat,Lon Date (NPP) Time (NPP) NPP Lat,Lon Distance(km) Time Diff (sec)
1 03/08/2014 01:42:50 14.89, 0.53 03/08/2014 01:38:40 15.02, -0.13 72.52 250
2 03/08/2014 02:31:05 -19.46, 169.19 03/08/2014 02:28:10 -19.66, 168.28 98.11 175
3 03/10/2014 14:04:39 29.99, -11.87 03/10/2014 13:54:43 30.02, -11.58 27.78 596
4 03/10/2014 14:53:32 -28.19, 156.25 03/10/2014 14:44:53 -28.19, 156.24 0.50 519
5 03/10/2014 15:35:45 1.80, -30.14 03/10/2014 15:28:12 1.80, -30.14 0.57 453
6 03/10/2014 16:22:41 7.04, 139.40 03/10/2014 16:16:21 7.11, 139.20 23.59 380
7 03/10/2014 17:10:55 -11.68, -51.97 03/10/2014 17:05:51 -11.77, -52.44 51.88 304
8 03/10/2014 17:59:03 16.17, 116.68 03/10/2014 17:55:14 16.33, 115.96 78.98 229
9 03/13/2014 06:21:11 29.97, 104.00 03/13/2014 06:11:38 30.01, 104.20 19.63 573
10 03/13/2014 07:08:21 -21.99, -86.36 03/13/2014 07:00:02 -21.99, -86.36 0.44 499
11 03/13/2014 07:50:43 -3.89, 86.94 03/13/2014 07:43:30 -3.91, 86.93 2.28 433
12 03/13/2014 08:38:50 8.44,-104.43 03/13/2014 08:32:53 8.48,-104.71 30.96 357
13 03/13/2014 09:27:05 -13.02, 64.19 03/13/2014 09:22:23 -13.13, 63.66 58.96 282
14 03/13/2014 10:15:13 17.51,-127.15 03/13/2014 10:11:46 17.69,-127.93 85.56 207
15 03/15/2014 22:37:43 29.95,-140.12 03/15/2014 22:28:33 29.95,-140.00 11.60 550
16 03/15/2014 23:22:43 -14.13, 31.31 03/15/2014 23:14:44 -14.13, 31.32 0.93 479
17 03/16/2014 00:06:52 -5.30,-156.89 03/16/2014 00:00:02 -5.33,-156.97 9.43 410
18 03/16/2014 00:55:00 9.79, 11.74 03/16/2014 00:49:25 9.89, 11.40 38.57 335
19 03/16/2014 01:43:15 -14.37,-179.64 03/16/2014 01:38:56 -14.48, 179.76 66.29 259
20 03/16/2014 02:31:22 18.92, -10.95 03/16/2014 02:28:18 19.10, -11.81 92.19 184
21 03/18/2014 14:04:45 -30.00, 168.12 03/18/2014 13:54:45 -30.21, 168.41 37.19 600
22 03/18/2014 14:54:15 29.99, -24.25 03/18/2014 14:45:30 30.02, -24.23 3.59 525
23 03/18/2014 15:37:08 -6.50, 148.85 03/18/2014 15:29:30 -6.50, 148.85 0.85 458
24 03/18/2014 16:23:00 -6.72, -40.71 03/18/2014 16:16:34 -6.73, -40.87 17.74 386
25 03/18/2014 17:11:08 11.20, 127.92 03/18/2014 17:05:57 11.30, 127.51 46.38 311
26 03/18/2014 17:59:23 -15.78, -63.45 03/18/2014 17:55:27 -15.94, -64.11 73.69 236
27 03/18/2014 18:47:30 20.33, 105.25 03/18/2014 18:44:50 20.51, 104.32 98.97 160
28 03/21/2014 06:21:15 -29.97, -75.99 03/21/2014 06:11:37 -29.99, -75.74 24.29 578
29 03/21/2014 07:09:39 25.99, 92.64 03/21/2014 07:01:17 25.99, 92.63 1.08 502
30 03/21/2014 07:51:38 0.77, -93.72 03/21/2014 07:44:22 0.77, -93.72 0.38 436
31 03/21/2014 08:39:06 -8.19, 75.49 03/21/2014 08:33:04 -8.24, 75.26 25.98 362
32 03/21/2014 09:27:14 12.68,-115.88 03/21/2014 09:22:27 12.81,-116.36 54.47 287
33 03/21/2014 10:15:28 -17.31, 52.78 03/21/2014 10:11:57 -17.45, 52.03 81.04 211




NCC Satellite Simultaneous Nadir Overpasses (SNOs) Prediction Service
